Location: Unspecified
(0.0000°N, 0.0000°E)
Time: 18:08:17
(UTC+00:00)

SRMSAT - Pass Details

Date: 08 December 2017
Orbit: 849 x 866 km, 20.0° (Epoch: 16 January)

Event Time Altitude Azimuth Distance (km) Brightness Sun altitude
Exits shadow 03:16:21 27° 172° (S) 1,594 ? -35.4°
Maximum altitude 03:16:58 27° 162° (SSE) 1,577 ? -35.2°
Drops below altitude 10° 03:21:59 10° 105° (ESE) 2,492 ? -34.1°
Sets 03:24:56 0° 93° (E) 3,429 ? -33.5°
